Location: Unspecified
(40.6516°N, 0.0000°E)
Time: 03:23:11
(UTC+00:00)

SL-16 DEB - Visible Passes

Search period start: 04 April 2026 00:00
Search period end: 14 April 2026 00:00
Orbit: 704 x 866 km, 71.0° (Epoch: 20 March)

Date Brightness Start Highest point End Pass type
(mag) Time Alt. Az. Time Alt. Az. Time Alt. Az.
4 Apr ? 03:15:54 10° NNW 03:21:35 54° ENE 03:27:02 10° SE visible
4 Apr ? 04:59:45 10° NW 05:03:53 21° W 05:07:56 10° SSW visible
4 Apr ? 19:41:25 10° W 19:44:36 15° NW 19:47:50 10° NNW visible
5 Apr ? 02:43:41 10° N 02:49:03 38° ENE 02:54:14 10° SE visible
5 Apr ? 04:26:45 10° NW 04:31:42 31° WSW 04:36:30 10° SSW visible
5 Apr ? 19:07:41 10° W 19:11:50 21° NW 19:16:06 10° N visible
6 Apr ? 02:11:34 10° N 02:16:27 27° NE 02:21:09 10° ESE visible
6 Apr ? 03:54:01 10° NW 03:59:27 46° WSW 04:04:41 10° S visible
7 Apr ? 01:39:36 10° N 01:43:44 20° NE 01:47:46 10° E visible
7 Apr ? 03:21:25 10° NNW 03:27:07 68° WSW 03:31:28 17° S visible
8 Apr ? 01:07:54 10° NNE 01:10:57 14° NE 01:13:57 10° ENE visible
8 Apr ? 02:48:56 10° NNW 02:54:43 83° ENE 02:55:25 69° SE visible
8 Apr ? 04:34:18 10° WNW 04:35:51 12° W 04:35:51 12° W visible
8 Apr ? 19:17:16 10° NW 19:18:08 10° NW 19:19:00 10° NNW visible
9 Apr ? 00:37:18 10° NE 00:38:05 10° NE 00:38:50 10° NE visible
9 Apr ? 02:16:33 10° NNW 02:21:54 56° NE 02:21:54 56° NE visible
9 Apr ? 04:00:33 10° NW 04:02:23 16° WNW 04:02:23 16° WNW visible
10 Apr ? 01:44:16 10° N 01:48:58 38° NE 01:48:58 38° NE visible
10 Apr ? 03:27:27 10° NW 03:29:29 19° WNW 03:29:29 19° WNW visible
11 Apr ? 01:12:06 10° N 01:16:19 28° NE 01:16:19 28° NE visible
11 Apr ? 02:54:36 10° NW 02:56:51 23° NW 02:56:51 23° NW visible
12 Apr ? 00:40:03 10° N 00:43:51 20° NE 00:43:51 20° NE visible
12 Apr ? 02:21:56 10° NNW 02:24:24 26° NW 02:24:24 26° NW visible
13 Apr ? 00:08:15 10° NNE 00:11:25 15° NE 00:11:30 15° NE visible
13 Apr ? 01:49:23 10° NNW 01:52:03 29° NNW 01:52:03 29° NNW visible
13 Apr ? 23:37:18 10° NNE 23:38:30 11° NE 23:39:14 10° NE visible
